THOR AGENA B DEB, 1948

Orbit data source: Space-Track

THOR AGENA B DEB, 1948 is space debris in LEO originally from a launch on Mon, 29 Nov 1965 UTC launched from the Air Force Western Test Range (AFWTR). Debris objects in space refer to the collection of defunct objects orbiting the Earth. Examples of debris include non-operational satellites, rocket bodies, and fragments generated from explosions, collisions, or faulty payload assembly.

Loading next visibility...
Identifier
1948, 1965-098F
Orbit
LEO
Country
Flag of USUS
Related business
Manufacturer
Unknown
Mission
Spacecraft
Bus & Motor
Unknown
Mass
~1 kg wet, ~1 kg dry
Launch date (UTC)
1965-11-29 (60 years ago)
Launch vehicle
Unknown
Launch site
Air Force Western Test Range (AFWTR)
Object type
Payload
Rocket body
Debris
Shape & HBR
Unknown
Radar Cross Section
Medium (>0.1 m² and <1 m²)

Expand to show TLE details & history
Last TLE update: 9 hours ago

TLE from 9 hours ago
0 THOR AGENA B DEB
1 01948U 65098F   25298.89355503  .00008338  00000-0  15413-2 0  9992
2 01948  79.8462 161.8221 0760672 122.4246 245.2809 13.58459435777323
Epoch: 2025-10-25T21:26Z
TLE epoch observation values (Epoch: 2025-10-25T21:26:43.154Z)
Latitude
0.00004°
Longitude
165.62473°
Altitude
1,313.879 km
Speed
7.068 km/s
True Right ascension
10h 47m 17s
True Declination
0° 00' 00"
Sunlit
Object was in daylight at epoch
Visualization orbit readout
Latitude
Unknown
Longitude
Unknown
Altitude
Unknown
Speed
Unknown
Apparent Right ascension
Unknown
Apparent Declination
Unknown
Sunlit
N/A
Visualization observer readout
Local Sidereal Time
01:52:55
Azimuth
Unknown
Elevation
Unknown
Doppler factor
Unknown
Orbital elements
Apogee altitude
1,602.756 km
Perigee altitude
474.417 km
Semi-major axis
7,416.724 km
Eccentricity
0.07607
Inclination
79.8462°
RAAN
161.8221°
Arg. of periapsis
122.4246°
True anomaly
237.68834°
Mean anomaly
245.2809°
Eccentric anomaly
241.45245°
Mean motion
3.39801 °/min
Orbital period
105.94 mins
BSTAR
0.0015413
Loading maneuver chart data...
Computing Atmospheric mass density...
Loading historical data...
Loading historical data...
Loading historical data...
Loading historical data...
Loading historical data...
Loading historical data...
Loading historical data...

Documentation

Showing up to 5 results
|